sat.trackr.live / text

‹ back to catalog

STARLINK-34208

NORAD 64740 · 2025-144S

PAYLOAD ACTIVE UNKNOWN

§ Identity

Operator
Country
US
Launch date
2025-07-02
Launch site
AFETR
Launch vehicle
Mass (kg)
RCS (m²)

Purposes: comms

External: N2YO · Heavens-Above · Gunter

§ Orbital elements

Epoch: 2026-09-20T12:08:42.992160Z

Period
93.85 min
Inclination
53.1605°
Eccentricity
0.0000904
Mean motion
15.34420830 rev/d
Perigee alt
462.0 km
Apogee alt
463.3 km
Semi-major
6,840.8 km
B*
3.8283e-4
RAAN
349.4318°
Arg perigee
68.8656°
Mean anomaly
291.2444°
Rev number
6,963

§ Raw data

STARLINK-342081 64740U 25144S   26263.50605315  .00012589  00000+0  38283-3 0  99922 64740  53.1605 349.4318 0000904  68.8656 291.2444 15.34420830 69637

JSON: /api/v1/satellites/64740 · /tle

For live sub-satellite position, see the globe view (requires WebGL).

§ Visibility from observer

Set your observer location to see the next 7 days of passes ≥ 10°. The values pass through the URL so the page stays shareable.

No JS? Fill the form by hand. The geolocation button needs JavaScript.